{"data":{"norad_id":50819,"intl_designator":"2022-001S","name":"STARLINK-3327","alt_names":[],"object_type":"PAYLOAD","status":"ACTIVE","operator":null,"country":"US","launch_date":"2022-01-06","launch_site_code":"AFETR","launch_vehicle":null,"mission":null,"orbit_class":"UNKNOWN","rcs_meters":null,"size_class":null,"mass_kg":null,"dimensions":null,"purposes":["comms"],"wikipedia_slug":null,"has_3d_model":false,"image_url":null,"decayed_at":null,"tle_current":{"epoch":"2026-09-19T22:25:56.485056Z","epoch_age_seconds":97150,"freshness":"FRESH","line1":"1 50819U 22001S   26262.93468154  .00000140  00000+0  15270-4 0  9999","line2":"2 50819  53.1602   4.7205 0000940  83.5884 276.5225 15.34384786259902","mean_motion":15.34384786,"eccentricity":9.4e-5,"inclination_deg":53.1602,"raan_deg":4.7205,"arg_perigee_deg":83.5884,"mean_anomaly_deg":276.5225,"bstar":1.527e-5,"rev_number":25990,"period_min":93.848688617016,"perigee_km":462.10541656173,"apogee_km":463.39150302817,"semimajor_km":6840.8854597949,"source":"CELESTRAK","updated_at":"2026-09-20T09:00:39.577776Z"}}}